Location: DARK SKY Beskydy - Park tmavé oblohy, www.darkskybeskydy.cz
(49.4926°N, 18.5016°E)
Time: 03:53:40
(UTC+02:00)

ISS - Pass Details

Date: 25 June 2024
Orbit: 409 x 424 km, 51.6° (Epoch: 18 July)

Event Time Altitude Azimuth Distance (km) Brightness Sun altitude
Exits shadow 03:44:16 - 201° (SSW) 1,576 -1.4 -7.4°
Reaches altitude 10° 03:44:33 10° 198° (SSW) 1,479 -1.6 -7.3°
Maximum altitude 03:47:16 24° 143° (SE) 916 -2.1 -7.0°
Drops below altitude 10° 03:50:01 10° 88° (E) 1,495 -0.3 -6.7°
Sets 03:52:22 0° 74° (ENE) 2,366 1.2 -6.5°
